Location: Mex
(46.1854°N, 6.9998°E)
Time: 12:01:21
(UTC+00:00)

Daily predictions for brighter satellites

Satellite Brightness Start Highest point End
(mag) Time Altitude Azimuth Time Altitude Azimuth Time Altitude Azimuth
SPOT 3 Rocket 4.1 19:34:45 10° SE 19:39:39 43° ENE 19:44:35 10° N
Cosmos 1825 3.1 19:36:27 10° SSW 19:40:07 52° WNW 19:43:48 10° N
Meteor 2-2 Rocket 4.5 19:35:07 10° NNW 19:40:57 79° W 19:46:37 10° S
IGS 5A 3.8 19:37:06 10° SE 19:41:06 48° ENE 19:45:06 10° N
BREEZE-M DEB (TANK) 4.0 19:28:45 10° W 19:42:59 72° NNW 19:46:47 10° ENE
Cosmos 1980 Rocket 2.2 19:38:50 10° NNW 19:44:28 82° ENE 19:50:08 10° SSE
Cosmos 2369 3.9 19:39:08 10° NNW 19:44:48 76° WSW 19:50:26 10° SSE
Cosmos 2058 3.2 19:40:44 10° SSW 19:44:55 76° W 19:49:07 10° N
Cosmos 2221 2.7 19:45:27 10° N 19:49:46 80° W 19:54:05 10° S
RESURS DK-1 2.3 19:46:14 10° SSW 19:50:23 84° ESE 19:54:35 10° NNE
ERBS 3.8 19:47:47 10° WNW 19:50:34 27° SW 19:53:20 10° S
COSMOS 2406 4.1 19:48:11 10° SW 19:53:45 56° WNW 19:59:24 10° NNE
BREEZE-M DEB (TANK) 3.3 19:50:49 10° SW 19:54:03 49° SE 20:03:57 10° ENE
Cosmos 2322 Rocket 3.5 19:50:11 10° N 19:54:56 27° NE 19:59:38 10° ESE
IRS-1A Rocket 4.4 19:50:14 10° S 19:55:45 76° WSW 20:01:17 10° NNW
Cosmos 304 Rocket 4.4 19:55:11 10° N 19:59:45 41° ENE 20:03:55 12° SE
BREEZE-M DEB (TANK) 3.4 19:57:03 10° WNW 20:00:04 90° ENE 20:08:54 10° ESE
Cosmos 1538 Rocket 4.0 19:56:06 10° S 20:01:12 59° ESE 20:06:18 10° NNE
Cosmos 1933 4.2 19:57:29 10° N 20:01:14 34° ENE 20:04:32 12° SE
Resurs 01 Rocket 1.6 19:59:17 10° SSE 20:03:43 84° ENE 20:08:12 10° NNW
Cosmos 2151 3.3 20:01:40 10° SSE 20:05:42 45° E 20:09:48 10° NNE
ERS-2 2.1 20:02:13 10° NNE 20:05:52 87° WNW 20:09:30 10° SSW
Cosmos 2098 Rocket 2.3 20:03:56 10° S 20:06:59 77° E 20:10:37 10° N
Gbstr 26 Del rocket 3.1 20:05:30 10° WNW 20:09:11 56° NNE 20:12:56 11° E
Meteor 2-3 Rocket 4.1 20:05:32 10° SSE 20:10:52 45° E 20:16:17 10° NNE
CARTOSAT-1 4.4 20:09:29 13° SE 20:12:49 36° ENE 20:16:47 10° N
Cosmos 2219 Rocket 4.4 20:13:23 10° N 20:15:47 13° NE 20:18:12 10° ENE
Ariane Rocket 3.8 20:13:15 10° S 20:18:10 50° W 20:23:07 10° NNW
SL-16 R/B 2.6 20:18:15 10° NNW 20:23:47 51° ENE 20:28:03 17° SE
Cosmos 1782 3.5 20:23:54 10° N 20:27:43 39° ENE 20:30:03 20° SE
Cosmos 371 Rocket 3.6 20:23:42 10° NNW 20:28:27 63° WSW 20:32:51 12° S
ARIANE 5 R/B 3.1 20:26:51 18° SE 20:29:54 45° ENE 20:34:10 10° N
Cosmos 1271 Rocket 2.8 20:30:20 10° N 20:34:19 65° ENE 20:36:55 20° SSE
SPOT 1/Viking Rocket 3.6 20:31:18 13° SSE 20:36:03 84° WSW 20:41:19 10° NNW
USA 276 2.1 20:33:40 10° WNW 20:36:50 79° NNE 20:38:32 25° ESE
BREEZE-M DEB (TANK) 2.6 20:34:50 10° WNW 20:37:53 68° SSW 20:43:14 17° SE
Cosmos 2195 Rocket 4.4 20:31:54 10° S 20:37:59 73° E 20:44:05 10° NNE
Cosmos 1766 Rocket 4.1 20:37:41 21° SSE 20:40:08 38° E 20:44:13 10° NNE
Cosmos 1151 Rocket 3.5 20:37:07 10° N 20:41:21 46° ENE 20:43:40 23° SE
ATLAS 5 CENTAUR R/B 4.3 20:38:44 10° NNW 20:42:10 17° NNE 20:45:56 10° ENE
ATLAS 2AS CENTAUR R/B 4.1 20:37:32 10° WSW 20:45:06 47° NW 20:52:28 10° NNE
Cosmos 1328 Rocket 4.2 20:41:21 10° N 20:45:34 39° ENE 20:47:40 24° SE
Cosmos 923 Rocket 4.0 20:42:17 10° S 20:47:34 67° ESE 20:52:53 10° NNE
Terra 2.4 20:47:56 23° SE 20:50:30 43° ENE 20:55:01 10° N
ATLAS 3B R/B 3.4 20:44:04 10° NW 20:50:56 52° WSW 20:56:42 16° S
SPOT 5 2.7 20:50:48 26° SE 20:53:08 62° ENE 20:57:28 10° N
USA 267 4.0 20:49:09 10° ENE 20:54:40 28° SE 20:59:02 15° S
Cosmos 1092 Rocket 4.1 20:49:49 10° S 20:56:05 80° W 21:02:26 10° N
Cosmos 2082 Rocket 3.9 20:51:08 10° WSW 20:56:16 35° NW 21:01:28 10° NNE
Cosmos 2056 Rocket 4.0 20:54:11 10° NNW 20:59:23 49° ENE 21:02:09 26° SE
NOSS 2-1 (C) 4.0 21:00:51 27° E 21:00:51 27° E 21:02:58 10° ENE
BREEZE-M DEB (TANK) 2.8 21:00:18 10° W 21:02:29 40° N 21:03:13 26° NE
ERS-1 Rocket 2.9 21:00:35 25° SSE 21:03:32 80° ENE 21:08:35 10° NNW
SL-27 R/B 3.5 21:06:23 29° E 21:06:23 29° E 21:09:20 10° NE
Cosmos 2360 Rocket 2.6 21:01:40 10° NNW 21:07:10 51° ENE 21:10:08 26° ESE
NOSS 2-1 (D) 3.6 21:08:18 34° E 21:08:18 34° E 21:10:46 10° NE
Cosmos 2026 Rocket 4.1 21:02:42 10° SSW 21:09:03 79° W 21:15:22 10° N
GP-B 3.5 21:08:43 10° N 21:13:06 62° W 21:16:14 19° SSW
ISS -2.4 21:12:49 10° W 21:15:43 27° SW 21:15:56 26° SSW
Cosmos 2333 Rocket 3.3 21:12:31 10° NNW 21:17:37 33° NE 21:20:38 20° E
Spot 2 Rocket 4.0 21:14:48 20° S 21:18:12 54° W 21:23:14 10° NNW
Meteor 1-10 Rocket 4.4 21:15:01 10° N 21:20:29 56° ENE 21:22:51 32° SE
Cosmos 1371 Rocket 4.0 21:15:33 10° NNW 21:20:57 81° ENE 21:23:22 34° SSE
Cosmos 1812 2.6 21:18:08 10° N 21:22:01 83° E 21:23:04 47° SSE
Cosmos 2112 Rocket 3.9 21:17:49 15° SSW 21:22:12 85° ESE 21:27:30 10° NNE
Cosmos 1680 Rocket 3.5 21:17:27 10° SSW 21:22:42 83° WNW 21:28:00 10° NNE
Cosmos 220 Rocket 3.9 21:20:00 10° NNW 21:24:22 84° WSW 21:25:50 41° SSE
Okean 3 Rocket 3.8 21:24:58 24° SSW 21:27:38 71° W 21:32:10 10° N
Cosmos 1980 Rocket 4.5 21:24:27 10° WNW 21:27:44 16° W 21:31:00 10° SW
USA 234 4.1 21:23:15 10° E 21:29:26 46° NNE 21:35:38 10° NW
Cosmos 292 Rocket 4.1 21:27:28 10° NNW 21:32:10 54° ENE 21:33:40 38° ESE
Cosmos 2237 Rocket 4.5 21:34:20 10° N 21:37:45 16° NE 21:41:09 10° ENE
Meteor 2-16 Rocket 4.4 21:35:25 33° SSE 21:38:07 65° E 21:44:09 10° NNE
Cosmos 2322 Rocket 2.5 21:33:50 10° NNW 21:39:22 58° WSW 21:41:46 33° S
Resurs 01 Rocket 4.4 21:39:44 10° WSW 21:40:49 11° W 21:41:54 10° WNW
Cosmos 1408 Rocket 3.4 21:40:12 46° S 21:41:29 86° E 21:45:51 10° N
Cosmos 1743 Rocket 3.9 21:42:22 45° ESE 21:42:52 47° E 21:47:10 10° NNE
Cosmos 2315 Rocket 4.3 21:43:46 10° N 21:49:57 53° ENE 21:52:17 36° SE
Sich 1 4.3 21:51:50 26° E 21:51:50 26° E 21:55:16 10° NNE
Cosmos 2084 3.5 21:48:52 19° SW 21:51:38 72° NW 21:55:50 10° NE
Cosmos 1553 Rocket 4.3 21:46:25 10° NNW 21:52:22 58° W 21:55:35 27° SSW
Gbstr 26 Del rocket 3.8 21:52:21 10° WNW 21:55:26 33° SW 21:55:26 33° SW
Cosmos 2266 Rocket 3.9 21:53:29 37° S 21:56:02 77° E 22:02:16 10° N
Cosmos 1862 4.0 21:57:03 34° SW 21:58:20 49° WNW 22:02:13 10° N
Cosmos 2219 Rocket 2.6 21:55:36 10° NNW 22:01:06 54° ENE 22:02:58 37° ESE
Cosmos 1624 Rocket 4.4 21:56:18 10° NNW 22:01:21 52° WSW 22:02:57 38° SSW
Cosmos 2228 Rocket 3.1 22:01:16 10° N 22:05:39 61° E 22:06:05 58° ESE
Cosmos 1515 Rocket 4.0 22:01:25 10° NNW 22:05:46 54° W 22:06:43 44° SW
NOSS 2-1 (E) 3.5 22:05:22 49° W 22:05:47 54° NW 22:09:11 10° NNE
H-2A R/B 3.7 22:02:00 10° N 22:06:10 65° WNW 22:07:15 46° SW
SL-16 R/B 3.6 22:02:53 10° NW 22:07:35 27° WSW 22:09:55 21° SW
NOSS 3-1 (C) 4.1 22:02:49 10° NW 22:10:19 85° NE 22:14:30 35° SE
COSMOS 2455 2.9 22:09:10 46° SSE 22:10:38 59° ESE 22:16:33 10° NE
Cosmos 2333 4.1 22:05:05 10° NNW 22:10:43 87° ENE 22:12:13 51° SSE
Cosmos 1420 Rocket 4.2 22:07:08 10° NNW 22:12:25 63° WSW 22:13:43 47° SSW
Cosmos 883 Rocket 4.4 22:08:33 10° N 22:14:49 88° W 22:16:57 45° S
COSMOS 2428 3.0 22:10:13 10° NNW 22:15:52 58° ENE 22:17:35 41° ESE
Cosmos 1655 Rocket 4.2 22:12:44 31° SSW 22:15:57 70° W 22:22:22 10° N
Spot 4 3.8 22:21:45 60° ESE 22:22:26 70° ENE 22:27:16 10° N
USA 229 DEB 4.0 22:17:13 10° NW 22:24:31 70° NE 22:28:16 33° ESE
USA 229 4.1 22:17:19 10° NW 22:24:36 70° NE 22:28:23 33° ESE
ATLAS 5 CENTAUR R/B 2.8 22:22:33 10° NNW 22:27:53 53° NE 22:30:39 31° ESE
Terra 3.5 22:26:49 20° WSW 22:28:25 23° W 22:32:14 10° NW
COSMOS 2487 3.5 22:31:49 42° NNE 22:31:49 42° NNE 22:34:10 10° NNE
Cosmos 1452 Rocket 3.4 22:26:42 10° NNW 22:31:59 83° WSW 22:32:49 64° S
Cosmos 1707 Rocket 3.9 22:28:01 10° N 22:32:17 52° ENE 22:32:18 52° ENE
ALOS 2 3.0 22:33:57 51° E 22:34:09 51° ENE 22:38:25 10° N
USA 267 3.2 22:31:37 10° NE 22:38:13 90° SSW 22:44:46 10° SW
Meteor 1-27 Rocket 4.2 22:37:20 10° NNW 22:42:46 51° W 22:44:14 41° SW
NOSS 3-1 (A) 4.0 22:37:30 10° NW 22:45:01 86° NE 22:48:48 38° SE
Cosmos 1805 Rocket 3.8 22:49:13 58° W 22:49:32 60° W 22:53:57 10° N
Nadezhda 2 Rocket 4.4 22:49:09 53° S 22:50:46 82° E 22:57:12 10° N
Cosmos 2360 Rocket 3.5 22:46:12 10° NW 22:50:51 27° WSW 22:51:53 25° WSW
Meteor 1-20 Rocket 4.2 22:54:51 57° SSW 22:56:02 79° WNW 23:01:45 10° N
Cosmos 1110 Rocket 3.9 22:52:41 10° NNW 22:58:03 88° ENE 22:58:40 71° SSE
Cosmos 1980 4.2 22:54:11 10° NNW 22:59:43 51° ENE 23:01:19 39° ESE
Cosmos 2333 Rocket 2.7 22:56:40 10° NW 23:02:01 45° WSW 23:02:38 43° SW
Cosmos 1331 Rocket 3.8 22:58:12 10° NNW 23:03:29 88° ENE 23:03:58 74° SSE
Cosmos 1244 Rocket 4.4 23:03:47 55° SSW 23:05:15 85° W 23:11:30 10° N
USA 234 3.1 23:10:02 46° SE 23:12:11 80° SW 23:18:47 10° NW
Cosmos 2322 4.4 23:06:54 10° NW 23:12:12 40° WSW 23:12:44 39° WSW
Cosmos 1340 Rocket 4.5 23:13:35 25° ENE 23:13:35 25° ENE 23:15:59 10° NNE
Nimbus 7 Rocket 4.4 23:07:04 10° NNE 23:13:04 68° ESE 23:14:02 58° SSE
NOSS 0 Rocket 3.8 23:08:25 10° NNW 23:14:43 89° SW 23:16:01 59° SSE
Cosmos 2297 Rocket 2.7 23:17:11 44° ESE 23:17:14 44° ESE 23:22:36 10° NE
Okean 1-7 4.3 23:15:06 10° N 23:18:53 30° ENE 23:18:54 30° ENE
Lacrosse 5 2.8 23:21:59 35° E 23:21:59 35° E 23:25:23 10° ENE
Cosmos 2237 Rocket 2.3 23:17:12 10° NNW 23:22:53 71° ENE 23:24:02 55° ESE
Cosmos 2084 Rocket 3.7 23:20:06 10° NW 23:24:07 63° NNE 23:24:07 63° NNE
Meteor 1-18 Rocket 4.2 23:20:16 10° NNW 23:26:07 70° W 23:26:57 61° SW
Cosmos 1500 4.0 23:26:57 50° NNW 23:26:57 50° NNW 23:30:03 10° N
Cosmos 1470 Rocket 3.7 23:29:03 67° NE 23:29:03 67° NE 23:32:54 10° NNE
Cosmos 2227 Rocket 2.8 23:28:53 41° ESE 23:28:57 41° ESE 23:34:13 10° NE
Sich 1 4.4 23:28:46 29° W 23:29:11 30° WNW 23:33:03 10° N
Okean 1 4.5 23:28:43 10° NNW 23:31:46 36° WNW 23:31:46 36° WNW
Cosmos 1633 Rocket 3.4 23:33:06 55° WNW 23:33:06 55° WNW 23:37:15 10° N
Cosmos 1933 Rocket 4.0 23:35:34 56° ENE 23:35:34 56° ENE 23:39:36 10° NNE
Cosmos 1666 Rocket 4.4 23:37:07 42° WNW 23:37:11 42° WNW 23:41:26 10° N
Meteor 1-11 Rocket 4.3 23:41:19 41° ESE 23:41:58 43° E 23:47:08 10° NNE
Cosmos 2219 Rocket 3.5 23:40:12 10° NW 23:44:39 25° WSW 23:44:39 25° WSW
NOSS 2-2 (C) 4.4 23:44:30 10° NW 23:49:50 82° NE 23:52:23 41° SE
SL-16 R/B 3.1 23:44:44 10° NNW 23:50:09 44° NE 23:52:42 28° ESE
Cosmos 1269 Rocket 3.8 23:50:05 77° SSW 23:50:30 90° W 23:55:50 10° NNE
PSLV R/B 3.7 23:47:23 10° NNE 23:52:11 81° ESE 23:52:11 81° ESE
Resurs 1-4 Rocket 4.0 23:50:41 10° NE 23:54:02 17° E 23:55:13 16° ESE
